FW8634 Weather Reports


Display with metric or nautical units.
time (UTC)temp
F
wind
direction
speed
MPH
gust
MPH
rain 1hr
in
rain 24hr
in
rain mn
in
humidity
%
barometer
mb
20260906023053 71 0 0.0 0.0 0.00 0.27 0.27 97 1014.9
20260906021557 72 0 0.0 0.0 0.00 0.27 0.27 97 1015.0
20260906020100 72 0 0.0 0.0 0.00 0.27 0.27 97 1014.7
20260906014605 72 0 0.0 0.0 0.00 0.27 0.27 97 1014.6
20260906013107 73 0 0.0 3.0 0.00 0.27 0.27 96 1014.5
20260906011604 73 0 0.0 0.0 0.00 0.27 0.27 96 1014.3
20260906010048 73 0 0.0 0.0 0.00 0.27 0.27 96 1014.2
20260906004551 74 0 0.0 0.0 0.00 0.27 0.27 95 1014.2
20260906003050 74 0 0.0 0.0 0.00 0.27 0.27 94 1013.9
20260906001553 75 0 0.0 0.0 0.00 0.27 0.27 94 1013.7
20260906000045 75 0 0.0 0.0 0.00 0.27 0.27 92 1013.7
20260905234543 78 0 0.0 0.0 0.00 0.27 0.27 88 1013.6
20260905233106 79 0 0.0 0.0 0.00 0.27 0.27 86 1013.3
20260905231554 80 0 0.0 1.0 0.00 0.27 0.27 84 1013.3
20260905230047 84 0 0.0 0.0 0.00 0.27 0.27 75 1013.2
20260905224610 83 0 0.0 0.0 0.00 0.27 0.27 76 1013.2
20260905223054 83 0 0.0 0.0 0.00 0.27 0.27 75 1013.1
20260905221546 84 0 0.0 0.0 0.00 0.27 0.27 78 1013.2
20260905220049 82 0 0.0 0.0 0.00 0.27 0.27 80 1013.1
20260905214552 81 0 0.0 1.0 0.00 0.27 0.27 81 1013.4
20260905213049 82 0 0.0 0.0 0.00 0.27 0.27 82 1013.5
20260905211554 79 0 0.0 0.0 0.00 0.27 0.27 85 1013.6
20260905210053 78 0 0.0 6.0 0.00 0.27 0.27 89 1013.6
20260905204548 77 0 0.0 1.0 0.00 0.27 0.27 89 1013.9
20260905203101 76 0 0.0 0.0 0.00 0.27 0.27 89 1014.2
20260905201601 75 0 0.0 0.0 0.00 0.27 0.27 92 1014.4
20260905200052 74 0 0.0 0.0 0.00 0.27 0.27 92 1014.5
20260905194549 74 0 0.0 0.0 0.00 0.27 0.27 93 1014.6
20260905193053 74 0 0.0 0.0 0.00 0.27 0.27 93 1014.7
20260905191553 74 0 0.0 4.0 0.00 0.27 0.27 89 1014.7
20260905190107 74 0 0.0 2.0 0.05 0.27 0.27 92 1014.9
20260905184609 74 0 0.0 1.0 0.27 0.27 0.27 93 1014.7
20260905183043 75 0 0.0 0.0 0.27 0.27 0.27 92 1014.5
20260905181553 75 89 3.0 11.0 0.27 0.27 0.27 92 1014.3
20260905180049 80 91 5.0 18.0 0.20 0.20 0.20 79 1015.1
20260905174554 90 260 4.0 10.0 0.00 0.00 0.00 62 1014.9
20260905173052 91 0 2.0 8.0 0.00 0.00 0.00 60 1015.0
20260905171552 91 0 4.0 10.0 0.00 0.00 0.00 63 1015.3
20260905170055 91 170 4.0 11.0 0.00 0.00 0.00 60 1015.4
20260905164556 90 245 4.0 9.0 0.00 0.00 0.00 62 1015.4
20260905163054 90 199 4.0 9.0 0.00 0.00 0.00 65 1015.7
20260905161553 89 150 3.0 12.0 0.00 0.00 0.00 65 1016.0
20260905160049 89 172 4.0 9.0 0.00 0.00 0.00 68 1016.3
20260905154555 89 155 1.0 9.0 0.00 0.00 0.00 68 1016.2
20260905153055 87 232 3.0 11.0 0.00 0.00 0.00 67 1015.9
20260905151604 87 0 2.0 8.0 0.00 0.00 0.00 73 1016.0
20260905150046 86 0 0.0 3.0 0.00 0.00 0.00 73 1015.9
20260905144554 87 210 0.0 3.0 0.00 0.00 0.00 69 1015.9
20260905143053 87 0 0.0 0.0 0.00 0.00 0.00 76 1016.1
20260905141556 86 0 0.0 0.0 0.00 0.00 0.00 76 1016.2
20260905140053 84 0 0.0 0.0 0.00 0.00 0.00 78 1016.1
20260905134554 82 0 0.0 0.0 0.00 0.00 0.00 83 1016.2
20260905133051 80 0 0.0 0.0 0.00 0.00 0.00 84 1016.2
20260905131600 80 0 0.0 0.0 0.00 0.00 0.00 84 1016.3
20260905130050 79 0 0.0 0.0 0.00 0.00 0.00 85 1016.4
20260905124553 78 0 0.0 0.0 0.00 0.00 0.00 89 1016.4
20260905123054 78 0 0.0 0.0 0.00 0.00 0.00 89 1016.3
20260905121551 75 0 0.0 0.0 0.00 0.00 0.00 95 1016.3
20260905120052 73 0 0.0 0.0 0.00 0.00 0.00 96 1016.2
20260905114548 72 0 0.0 0.0 0.00 0.00 0.00 98 1016.1
20260905113045 71 0 0.0 0.0 0.00 0.00 0.00 98 1015.9
20260905111558 70 0 0.0 0.0 0.00 0.00 0.00 98 1015.7
20260905110052 70 0 0.0 0.0 0.00 0.00 0.00 98 1015.3
20260905104550 71 0 0.0 0.0 0.00 0.00 0.00 98 1015.2
20260905103045 71 0 0.0 0.0 0.00 0.00 0.00 98 1015.1
20260905101618 71 0 0.0 0.0 0.00 0.00 0.00 98 1015.0
20260905100053 71 0 0.0 0.0 0.00 0.00 0.00 98 1014.9
20260905094549 71 0 0.0 0.0 0.00 0.00 0.00 98 1015.0
20260905093045 71 0 0.0 0.0 0.00 0.00 0.00 98 1015.0
20260905091624 71 0 0.0 0.0 0.00 0.00 0.00 97 1015.0
20260905090053 71 0 0.0 0.0 0.00 0.00 0.00 97 1015.0
20260905084604 71 0 0.0 0.0 0.00 0.00 0.00 97 1015.2
20260905083045 72 0 0.0 0.0 0.00 0.00 0.00 97 1015.4
20260905081556 72 0 0.0 0.0 0.00 0.00 0.00 97 1015.5
20260905080052 72 0 0.0 0.0 0.00 0.00 0.00 98 1015.7
20260905074555 72 0 0.0 0.0 0.00 0.00 0.00 97 1015.7
20260905073046 72 0 0.0 0.0 0.00 0.00 0.00 97 1015.8
20260905071558 72 0 0.0 0.0 0.00 0.00 0.00 97 1015.9
20260905064552 73 0 0.0 0.0 0.00 0.00 0.00 96 1016.1
20260905063058 73 0 0.0 0.0 0.00 0.00 0.00 96 1016.4
20260905061607 73 0 0.0 0.0 0.00 0.00 0.00 97 1016.4
20260905060059 73 0 0.0 0.0 0.00 0.00 0.00 96 1016.6
20260905054552 73 0 0.0 0.0 0.00 0.00 0.00 96 1017.0
20260905053105 74 0 0.0 0.0 0.00 0.00 0.00 94 1017.2
20260905051546 74 0 0.0 0.0 0.00 0.00 0.00 95 1017.1
20260905050056 74 0 0.0 0.0 0.00 0.00 0.00 95 1017.0
20260905044553 74 0 0.0 0.0 0.00 0.00 0.00 94 1017.0
20260905043049 74 0 0.0 0.0 0.00 0.00 0.00 94 1017.1
20260905041547 74 0 0.0 0.0 0.00 0.00 0.00 93 1016.8
20260905040053 76 0 0.0 0.0 0.00 0.00 0.00 91 1016.7
20260905034551 75 0 0.0 0.0 0.00 0.00 0.00 93 1016.7
20260905033059 75 0 0.0 0.0 0.00 0.00 0.00 92 1016.6
20260905031557 75 0 0.0 0.0 0.00 0.00 0.00 92 1016.5
20260905030059 76 0 0.0 0.0 0.00 0.00 0.00 92 1016.6
20260905024627 76 0 0.0 0.0 0.00 0.00 0.00 92 1016.6